Location: Coll
(42.4728°N, 0.7714°E)
Time: 06:31:16
(UTC+00:00)

Cosmos 1110 Rocket - Pass Details

Date: 23 October 2020
Orbit: 753 x 780 km, 74.0° (Epoch: 23 November)

Event Time Altitude Azimuth Distance (km) Brightness Sun altitude
Exits shadow 04:19:35 16° 337° (NNW) 1,896 5.9 -22.8°
Maximum altitude 04:23:44 80° 253° (WSW) 769 3.8 -22.0°
Drops below altitude 10° 04:28:53 10° 166° (SSE) 2,271 6.6 -21.1°
Sets 04:31:14 0° 165° (SSE) 3,193 7.4 -20.6°
